This demonstration page uses our WeatherBlox Daily Observations layout. Learn more.

Left ArrowRight Arrow

Hourly Observations for January 28, 2022

Temp ( °F °C ) Dew Point ( °F °C ) Humidity (%) Winds ( mph kmh ) Pressure ( in mb ) Visibility ( mi km ) Precip ( " mm )
12:53 am 00:53 Cloudy 30 -1.1 25 -3.9 82 82 Calm 30.22 1023 10 16 0.00 0.00
1:53 am 01:53 Cloudy 30 -1.1 25 -3.9 82 82 Calm 30.20 1023 10 16 0.00 0.00
2:53 am 02:53 Cloudy 30 -1.1 25 -3.9 82 82 Calm 30.19 1023 10 16 0.00 0.00
3:53 am 03:53 Cloudy 30 -1.1 26 -3.3 85 85 Calm 30.18 1022 9 14 0.00 0.00
4:09 am 04:09 Cloudy with Light Snow 30 -1.1 25 -3.9 82 82 Calm 30.20 1023 5 8 0.00 0.00
4:30 am 04:30 Cloudy with Light Snow 30 -1.1 26 -3.3 85 85 Calm 30.20 1023 3 4 0.00 0.00
4:41 am 04:41 Cloudy with Light Snow 30 -1.1 26 -3.3 85 85 Calm 30.19 1022 3 5 0.00 0.00
4:53 am 04:53 Cloudy with Light Snow 29 -1.7 26 -3.3 89 89 Calm 30.17 1022 3 5 0.00 0.00
5:53 am 05:53 Cloudy 28 -2.2 26 -3.3 92 92 Calm 30.16 1022 7 11 0.00 0.00
6:48 am 06:48 Cloudy with Light Snow 28 -2 27 -3 93 93 Calm 30.20 1023 3 5 0.00 0.00
6:53 am 06:53 Cloudy with Light Snow 28 -2.2 26 -3.3 92 92 Calm 30.17 1022 3 5 0.00 0.00
7:53 am 07:53 Cloudy with Mist and Fog 29 -1.7 26 -3.3 89 89 Calm 30.18 1022 5 8 0.00 0.00
8:06 am 08:06 Cloudy with Mist and Fog 29 -1.7 26 -3.3 89 89 Calm 30.20 1023 5 8 0.00 0.00
8:16 am 08:16 Cloudy with Mist and Fog 29 -1.7 26 -3.3 89 89 Calm 30.20 1023 4 6 0.00 0.00
8:26 am 08:26 Cloudy with Mist and Fog 29 -1.7 26 -3.3 89 89 Calm 30.20 1023 3 5 0.00 0.00
8:33 am 08:33 Cloudy with Light Snow 29 -1.7 26 -3.3 89 89 Calm 30.20 1023 2 3 0.00 0.00
8:42 am 08:42 Cloudy with Light Snow 29 -1.7 26 -3.3 89 89 Calm 30.21 1023 1 2 0.00 0.00
8:49 am 08:49 Cloudy with Light Snow 28 -2 27 -3 93 93 Calm 30.21 1023 1 1 0.00 0.00
8:53 am 08:53 Cloudy with Light Snow 29 -1.7 26 -3.3 89 89 NW 3 6 30.19 1022 1 1 0.00 0.00
9:17 am 09:17 Cloudy with Light Snow 29 -1.7 26 -3.3 89 89 N 3 6 30.21 1023 1 2 0.00 0.00
9:24 am 09:24 Cloudy with Light Snow 29 -1.7 26 -3.3 89 89 N 3 6 30.21 1023 2 3 0.00 0.00
9:31 am 09:31 Cloudy with Light Snow 29 -1.7 25 -3.9 85 85 N 5 7 30.21 1023 3 4 0.00 0.00
9:53 am 09:53 Cloudy with Light Snow 29 -1.7 26 -3.3 89 89 NNE 5 7 30.19 1022 2 3 0.00 0.00
9:57 am 09:57 Cloudy with Light Snow 29 -1.7 25 -3.9 85 85 NE 5 7 30.20 1023 2 3 0.00 0.00
10:04 am 10:04 Cloudy with Light Snow 29 -1.7 25 -3.9 85 85 NNE 6 9 30.21 1023 1 2 0.00 0.00
10:45 am 10:45 Cloudy with Light Snow 30 -1.1 26 -3.3 85 85 NNE 7 11 30.20 1023 2 3 0.00 0.00
10:53 am 10:53 Cloudy with Light Snow 30 -1.1 25 -3.9 82 82 NNE 7 11 30.19 1022 2 3 0.00 0.00
11:09 am 11:09 Cloudy with Mist and Fog 30 -1.1 26 -3.3 85 85 VRB 7 11 30.20 1023 3 5 0.01 0.25
11:20 am 11:20 Cloudy with Light Snow 30 -1.1 25 -3.9 82 82 NNE 6 9 30.20 1023 3 5 0.01 0.25
11:49 am 11:49 Cloudy with Light Snow 28 -2 25 -4 86 86 N 9 15 30.20 1023 2 3 0.02 0.51
11:53 am 11:53 Cloudy with Light Snow 29 -1.7 25 -3.9 85 85 NNE 8 13 30.18 1022 2 3 0.02 0.51
12:11 pm 12:11 Cloudy with Light Snow 28 -2.2 24 -4.4 85 85 NNE 9 15 30.19 1022 2 3 0.00 0.00
12:22 pm 12:22 Cloudy with Light Snow 28 -2.2 24 -4.4 85 85 N 9 15 30.19 1022 2 2 0.00 0.00
12:50 pm 12:50 Cloudy with Light Snow 27 -3 23 -5 86 86 N 9 15 30.19 1022 1 2 0.00 0.00
12:53 pm 12:53 Cloudy with Light Snow 27 -2.8 23 -5 85 85 NNE 8 13 30.17 1022 1 2 0.00 0.00
1:18 pm 13:18 Cloudy with Light Snow 26 -3.3 21 -6.1 81 81 N 12 19 30.18 1022 2 3 0.00 0.00
1:21 pm 13:21 Cloudy with Light Snow 26 -3.3 21 -6.1 81 81 N 10 17 30.18 1022 2 3 0.00 0.00
1:31 pm 13:31 Cloudy with Light Snow 25 -3.9 20 -6.7 81 81 N 10 17 30.18 1022 2 3 0.00 0.00
1:39 pm 13:39 Cloudy with Light Snow 25 -3.9 21 -6.1 85 85 N 10 17 30.18 1022 1 2 0.00 0.00
1:50 pm 13:50 Cloudy with Light Snow 25 -4 19 -7 80 80 NNE 8 13 30.18 1022 1 1 0.00 0.00
1:53 pm 13:53 Cloudy with Light Snow 25 -3.9 21 -6.1 85 85 N 9 15 30.16 1021 1 1 0.00 0.00
2:09 pm 14:09 Cloudy with Light Snow 23 -5 20 -6.7 88 88 NNW 9 15 30.19 1022 1 1 0.00 0.00
2:15 pm 14:15 Cloudy with Light Snow 23 -5 19 -7.2 85 85 N 10 17 30.19 1022 1 2 0.00 0.00
2:53 pm 14:53 Cloudy with Light Snow 22 -5.6 18 -7.8 85 85 N 12 19 30.16 1022 1 2 0.00 0.00
3:19 pm 15:19 Cloudy with Light Snow 21 -6.1 17 -8.3 85 85 N 9 15 30.20 1023 1 1 0.00 0.00
3:39 pm 15:39 Mostly Cloudy with Snow 20 -6.7 17 -8.3 89 89 NNW 9 15 30.21 1023 1 1 0.00 0.00
3:53 pm 15:53 Mostly Cloudy with Snow 19 -7.2 15 -9.4 84 84 N 10 17 30.19 1022 1 1 0.00 0.00
4:29 pm 16:29 Mostly Cloudy with Light Snow 19 -7.2 15 -9.4 84 84 NNW 9 15 30.23 1024 1 1 0.00 0.00
4:41 pm 16:41 Mostly Cloudy with Light Snow 18 -7.8 14 -10 84 84 NNW 9 15 30.23 1024 1 2 0.00 0.00
4:53 pm 16:53 Cloudy with Light Snow 18 -7.8 14 -10 84 84 N 13 20 30.21 1023 1 2 0.00 0.00
5:33 pm 17:33 Cloudy with Light Snow 18 -7.8 14 -10 84 84 N 8 13 30.25 1025 2 3 0.00 0.00
5:48 pm 17:48 Cloudy with Light Snow 18 -8 14 -10 86 86 N 9 15 30.26 1025 3 4 0.00 0.00
5:53 pm 17:53 Cloudy with Light Snow 18 -7.8 14 -10 84 84 N 9 15 30.24 1024 3 4 0.00 0.00
6:08 pm 18:08 Cloudy with Light Snow 18 -7.8 14 -10 84 84 N 7 11 30.26 1025 3 5 0.00 0.00
6:53 pm 18:53 Cloudy with Mist and Fog 17 -8.3 13 -10.6 84 84 N 7 11 30.26 1025 6 10 0.00 0.00
7:53 pm 19:53 Cloudy 16 -8.9 10 -12.2 77 77 NNW 8 13 30.27 1025 10 16 0.00 0.00
8:53 pm 20:53 Mostly Cloudy 15 -9.4 9 -12.8 77 77 N 8 13 30.28 1026 10 16 0.00 0.00
9:53 pm 21:53 Partly Cloudy 13 -10.6 8 -13.3 81 81 NNW 6 9 30.30 1026 10 16 0.00 0.00
10:53 pm 22:53 Clear 12 -11.1 7 -13.9 80 80 NNW 7 11 30.32 1027 10 16 0.00 0.00
11:53 pm 23:53 Clear 8 -13.3 2 -16.7 76 76 NNE 3 6 30.32 1027 10 16 0.00 0.00

Powered by AerisWeather